Sawtelle Peak

Sawtelle summit stationLocated on Sawtelle Peak in the Centennials. Use the Sawtelle SNOdar or the nearest SNOTEL station for snow depth data: White Elephant. The data on this page is also available to view at dataGarrison.com.

 

Elevation
9885ft
Jump to table bottom
Date Time Temperature
deg F
RH, % Wind Speed Wind Gust Wind Direction Pressure Light
02/02/23 20:00 12.6 94 0 0 S - 168 709.540 2
02/02/23 19:00 12.9 94 0 0 S - 175 709.280 2
02/02/23 18:00 12.8 94 0 0 S - 175 709.680 10
02/02/23 17:00 12.3 94 0 0 S - 180 709.840 48,063
02/02/23 16:00 12.3 94 0 0 S - 181 709.660 235,697
02/02/23 15:00 12.7 94 0 0 S - 181 709.220 371,973
02/02/23 14:00 12.7 94 0 0 S - 180 709.020 559,098
02/02/23 13:00 13.1 94 0 0 S - 181 709.220 494,011
02/02/23 12:00 12.7 94 0 0 S - 183 709.100 451,298
02/02/23 11:00 12.4 94 0 0 S - 184 709.260 351,633
02/02/23 10:00 12.5 94 0 0 S - 185 708.660 288,580
02/02/23 09:00 12.7 94 0 0 S - 183 708.460 329,259
02/02/23 08:00 11.2 93 0 0 S - 183 708.160 386,211
02/02/23 07:00 10.6 93 0 0 S - 183 707.620 249
02/02/23 06:00 10.4 93 0 0 S - 178 707.500 0
02/02/23 05:00 11.0 93 0 0 S - 178 707.220 0
02/02/23 04:00 10.8 93 0 0 S - 181 707.160 0
02/02/23 03:00 10.1 93 0 0 S - 178 706.780 0
02/02/23 02:00 10.6 93 0 0 S - 178 706.440 1
02/02/23 01:00 11.6 94 0 0 S - 183 706.100 1
02/02/23 00:00 11.9 94 0 0 S - 184 706.120 1
02/01/23 23:00 12.6 94 0 0 S - 184 705.580 1
02/01/23 22:00 13.5 94 0 0 S - 184 705.460 1
02/01/23 21:00 13.7 94 0 0 S - 181 705.500 1
02/01/23 20:00 14.0 94 0 0 S - 185 705.060 1
02/01/23 19:00 14.1 95 0 0 S - 187 704.900 1
02/01/23 18:00 14.3 95 0 0 S - 190 704.760 6
02/01/23 17:00 14.7 95 0 0 S - 191 704.660 52,131
02/01/23 16:00 15.2 95 0 0 S - 191 704.040 123,828
02/01/23 15:00 14.6 95 0 0 S - 192 703.700 327,225
02/01/23 14:00 13.9 94 0 0 S - 194 703.200 315,022
02/01/23 13:00 13.4 94 0 0 S - 192 703.480 475,705
02/01/23 12:00 12.8 94 0 0 S - 192 703.120 357,735
02/01/23 11:00 12.3 94 0 0 S - 191 703.500 406,550
02/01/23 10:00 10.8 93 0 0 S - 191 703.280 441,128
02/01/23 09:00 9.2 93 0 0 S - 192 702.800 164,508
02/01/23 08:00 8.1 92 0 0 S - 191 702.280 30,138
02/01/23 07:00 7.5 92 0 0 S - 194 701.540 43
02/01/23 06:00 7.4 92 0 0 S - 194 701.500 0
02/01/23 05:00 6.7 92 0 0 S - 195 701.580 0
02/01/23 04:00 6.4 92 0 0 S - 194 701.320 0
02/01/23 03:00 6.0 92 0 0 S - 191 701.440 0
02/01/23 02:00 4.7 91 0 0 S - 190 700.620 0
02/01/23 01:00 4.4 91 0 0 S - 185 701.080 1
02/01/23 00:00 5.0 91 0 0 S - 183 701.280 1
01/31/23 23:00 4.3 91 0 0 S - 184 701.000 0
01/31/23 22:00 2.6 91 0 0 S - 188 700.780 0
01/31/23 21:00 1.2 90 0 0 S - 185 700.540 1
01/31/23 20:00 -1.7 89 0 0 S - 188 700.060 1
01/31/23 19:00 -1.3 90 0 0 S - 180 699.880 1